Weather reports worldwide

Advertisment
Greenville, United States of America (72312): temperature & dewpoint: 13.09.2019 14:00:00 - 19.09.2019 14:00:00 (EDT)Greenville, United States of America (72312): wind speed & gusts: 13.09.2019 14:00:00 - 19.09.2019 14:00:00 (EDT)Greenville, United States of America (72312): wind direction: 13.09.2019 14:00:00 - 19.09.2019 14:00:00 (EDT)Greenville, United States of America (72312): reduced air pressure: 13.09.2019 14:00:00 - 19.09.2019 14:00:00 (EDT)Greenville, United States of America (72312): visibility: 13.09.2019 14:00:00 - 19.09.2019 14:00:00 (EDT)Greenville, United States of America (72312): precipitation: 13.09.2019 14:00:00 - 19.09.2019 14:00:00 (EDT)
Date & Time tt [°C] td [°C] ff [km/h] ff [kn] fx [km/h] fx [kn] dd ppp [hPa] vv [km] rr [mm]
19.09.2019 14:00:00 22,8 10,6 18 10 - - NE 1024,4 16 -
19.09.2019 13:00:00 22,2 10,0 11 6 - - ENE 1024,6 16 -
19.09.2019 12:00:00 20,6 10,6 9 5 - - NE 1025,3 16 -
19.09.2019 11:00:00 19,4 9,4 9 5 - - ENE 1025,3 16 0,0
19.09.2019 10:00:00 18,9 11,1 15 8 - - ENE 1025,3 16 -
19.09.2019 09:00:00 18,3 11,7 13 7 - - E 1024,9 16 -
19.09.2019 08:00:00 18,3 11,1 11 6 - - E 1024,1 16 0,0
19.09.2019 07:00:00 18,9 12,2 13 7 - - E 1023,4 16 -
19.09.2019 06:00:00 20,0 12,2 13 7 - - E 1022,7 16 -
19.09.2019 05:00:00 20,0 12,8 8 4 - - ENE 1022,2 16 0,0
19.09.2019 04:00:00 20,6 13,9 9 5 - - E 1021,7 16 -
19.09.2019 03:00:00 20,6 15,6 11 6 - - ENE 1021,7 16 -
19.09.2019 02:00:00 20,6 16,1 11 6 - - NNE 1021,3 16 0,0
19.09.2019 01:00:00 20,6 16,1 9 5 - - NNE 1021,3 16 -
19.09.2019 00:00:00 21,1 16,1 9 5 - - NNE 1021,3 16 -
18.09.2019 23:00:00 21,1 16,1 9 5 - - N 1021,3 16 0,0
18.09.2019 22:00:00 21,1 16,1 9 5 - - NNE 1020,7 16 -
18.09.2019 21:00:00 21,7 14,4 9 5 - - N 1020,0 16 -
18.09.2019 20:00:00 22,2 13,9 5 3 - - NE 1019,6 16 0,0
18.09.2019 19:00:00 23,3 14,4 9 5 - - NNE 1019,3 16 -
18.09.2019 18:00:00 24,4 13,3 8 4 - - ENE 1019,3 16 -
18.09.2019 17:00:00 25,6 13,3 5 3 - - ESE 1019,3 16 0,0
18.09.2019 16:00:00 25,0 13,9 13 7 - - NNE 1019,9 16 -
18.09.2019 15:00:00 23,3 14,4 0 0 - - N 1020,3 16 -
18.09.2019 14:00:00 23,3 15,0 9 5 - - N 1020,4 16 0,0
18.09.2019 13:00:00 22,8 13,9 5 3 - - ESE 1020,5 16 -
18.09.2019 12:00:00 21,7 13,3 15 8 - - E 1020,3 16 -
18.09.2019 11:00:00 21,1 16,7 13 7 - - ENE 1020,1 16 0,0
18.09.2019 10:00:00 21,1 17,2 11 6 - - E 1020,0 16 -
18.09.2019 09:00:00 21,1 17,2 13 7 - - E 1019,4 16 -
18.09.2019 08:00:00 21,7 17,2 11 6 - - E 1018,7 16 0,0
18.09.2019 07:00:00 22,2 18,3 15 8 - - E 1018,2 16 -
18.09.2019 06:00:00 22,8 18,9 18 10 - - ENE 1017,7 16 -
18.09.2019 05:00:00 22,8 18,9 16 9 - - NE 1017,2 16 0,0
18.09.2019 04:00:00 23,9 18,3 15 8 - - ENE 1016,8 16 -
18.09.2019 03:00:00 24,4 19,4 13 7 - - NE 1016,4 16 -
18.09.2019 02:00:00 24,4 19,4 13 7 - - NE 1016,2 16 -
18.09.2019 01:00:00 25,0 20,0 9 5 - - NE 1015,6 16 -
18.09.2019 00:00:00 25,6 20,6 11 6 - - NNE 1015,4 16 -
17.09.2019 23:00:00 25,6 20,6 8 4 - - E 1015,0 16 -
17.09.2019 22:00:00 24,4 20,6 0 0 - - N 1014,5 16 0,3
17.09.2019 21:00:00 28,3 19,4 9 5 - - NNW 1014,2 15 0,0
17.09.2019 20:00:00 30,0 18,9 0 0 - - N 1013,3 16 0,0
17.09.2019 19:00:00 32,2 18,9 5 3 - - NE 1013,0 16 -
17.09.2019 18:00:00 31,7 18,3 0 0 - - N 1013,1 16 -
17.09.2019 17:00:00 32,8 17,8 11 6 - - NE 1013,1 16 0,0
17.09.2019 16:00:00 34,4 17,2 0 0 - - N 1013,1 16 -
17.09.2019 15:00:00 33,9 17,2 15 8 - - NE 1013,7 16 -
17.09.2019 14:00:00 33,9 17,2 11 6 - - E 1014,4 16 0,0
17.09.2019 13:00:00 33,3 17,2 9 5 - - N 1015,0 16 -
17.09.2019 12:00:00 32,2 17,2 13 7 - - NE 1015,4 16 -
17.09.2019 11:00:00 30,6 18,3 11 6 - - NNE 1015,6 16 0,0
17.09.2019 10:00:00 27,2 17,8 8 4 - - NE 1015,5 16 -
17.09.2019 09:00:00 25,0 18,3 0 0 - - N 1015,2 16 -
17.09.2019 08:00:00 22,8 16,7 0 0 - - N 1015,1 16 0,0
17.09.2019 07:00:00 20,6 16,1 0 0 - - N 1014,6 16 -
17.09.2019 06:00:00 21,1 16,7 0 0 - - N 1014,2 16 -
17.09.2019 05:00:00 20,6 16,7 8 4 - - NW 1013,9 16 0,0
17.09.2019 04:00:00 22,8 15,6 0 0 - - N 1013,9 16 -
17.09.2019 03:00:00 22,8 16,7 0 0 - - N 1014,4 16 -
17.09.2019 02:00:00 22,2 17,2 0 0 - - N 1014,9 16 0,0
17.09.2019 01:00:00 22,2 17,8 0 0 - - N 1015,0 16 -
17.09.2019 00:00:00 23,9 18,3 0 0 - - N 1015,3 16 -
16.09.2019 23:00:00 24,4 17,8 0 0 - - N 1015,3 16 0,0
16.09.2019 22:00:00 25,6 17,2 0 0 - - N 1015,2 16 -
16.09.2019 21:00:00 26,7 16,1 0 0 - - N 1015,0 16 -
16.09.2019 20:00:00 28,3 15,6 0 0 - - N 1014,7 16 0,0
16.09.2019 19:00:00 30,6 15,6 8 4 - - ENE 1014,7 16 -
16.09.2019 18:00:00 32,8 15,0 11 6 - - NE 1014,6 16 -
16.09.2019 17:00:00 33,3 14,4 15 8 - - NNE 1014,8 16 0,0
16.09.2019 16:00:00 33,3 13,9 - - - - - 1015,3 16 -
16.09.2019 15:00:00 33,9 13,9 13 7 - - NE 1016,2 16 -
16.09.2019 14:00:00 32,2 16,7 11 6 - - ENE 1017,0 16 0,0
16.09.2019 13:00:00 31,7 17,8 5 3 - - - 1017,8 16 -
16.09.2019 12:00:00 29,4 18,9 5 3 - - - 1018,6 16 -
16.09.2019 11:00:00 28,3 19,4 0 0 - - N 1019,2 16 0,0
16.09.2019 10:00:00 26,1 18,3 9 5 - - N 1019,5 15 -
16.09.2019 09:00:00 23,9 18,3 8 4 - - N 1019,3 16 -
16.09.2019 08:00:00 21,1 17,8 5 3 - - NNE 1019,1 16 0,0
16.09.2019 07:00:00 21,1 17,8 5 3 - - N 1018,7 16 -
16.09.2019 06:00:00 21,1 17,8 5 3 - - NNE 1018,2 16 -
16.09.2019 05:00:00 21,1 18,3 5 3 - - N 1018,0 16 0,0
16.09.2019 04:00:00 21,7 18,3 0 0 - - N 1018,1 16 -
16.09.2019 03:00:00 22,2 18,3 0 0 - - N 1018,1 16 -
16.09.2019 02:00:00 22,8 18,9 8 4 - - NNE 1018,6 16 0,0
16.09.2019 01:00:00 23,3 19,4 0 0 - - N 1018,8 16 -
16.09.2019 00:00:00 22,8 18,9 0 0 - - N 1018,7 16 -
15.09.2019 23:00:00 23,9 18,9 8 4 - - N 1018,6 16 0,0
15.09.2019 22:00:00 25,0 18,3 5 3 - - N 1018,3 16 -
15.09.2019 21:00:00 24,4 18,3 0 0 - - N 1017,9 16 -
15.09.2019 20:00:00 27,2 17,8 0 0 - - N 1017,6 16 0,0
15.09.2019 19:00:00 29,4 17,8 5 3 - - NE 1017,6 16 -
15.09.2019 18:00:00 31,1 17,2 9 5 - - NNE 1017,4 16 -
15.09.2019 17:00:00 31,7 16,7 13 7 - - NNE 1017,7 16 0,0
15.09.2019 16:00:00 31,1 17,8 13 7 - - ENE 1018,3 16 -
15.09.2019 15:00:00 31,1 18,9 11 6 - - E 1019,1 16 -
15.09.2019 14:00:00 30,0 20,0 9 5 - - - 1019,9 16 0,0
15.09.2019 13:00:00 29,4 20,6 0 0 - - N 1020,6 16 -
15.09.2019 12:00:00 27,8 21,1 0 0 - - N 1021,3 16 -
15.09.2019 11:00:00 25,6 20,6 9 5 - - N 1021,6 16 0,0
15.09.2019 10:00:00 25,0 20,6 9 5 - - NNE 1021,6 16 -
15.09.2019 09:00:00 22,8 20,6 8 4 - - NNE 1021,5 15 -
15.09.2019 08:00:00 21,7 19,4 5 3 - - NNE 1021,1 16 0,0
15.09.2019 07:00:00 21,1 19,4 5 3 - - N 1021,0 15 -
15.09.2019 06:00:00 20,6 19,4 0 0 - - N 1020,4 11 -
15.09.2019 05:00:00 21,1 20,0 0 0 - - N 1020,2 11 0,0
15.09.2019 04:00:00 21,1 20,0 0 0 - - N 1020,5 11 -
15.09.2019 03:00:00 21,7 20,6 0 0 - - N 1020,9 10 -
15.09.2019 02:00:00 22,2 20,6 0 0 - - N 1021,4 15 0,0
15.09.2019 01:00:00 22,8 20,6 8 4 - - NE 1021,6 16 -
15.09.2019 00:00:00 23,3 21,1 8 4 - - ENE 1022,0 16 -
14.09.2019 23:00:00 23,9 21,1 0 0 - - N 1022,1 16 0,0
14.09.2019 22:00:00 24,4 21,1 0 0 - - N 1021,9 16 -
14.09.2019 21:00:00 24,4 20,6 5 3 - - NE 1021,6 16 -
14.09.2019 20:00:00 25,6 20,6 0 0 - - N 1021,7 16 0,0
14.09.2019 19:00:00 26,7 20,6 0 0 - - N 1021,9 16 -
14.09.2019 18:00:00 28,9 21,1 5 3 - - - 1021,6 16 -
14.09.2019 17:00:00 28,3 20,6 5 3 - - - 1021,4 16 0,0
14.09.2019 16:00:00 27,8 20,6 9 5 - - NE 1021,8 16 -
14.09.2019 15:00:00 28,3 21,1 11 6 - - NE 1022,8 16 -
14.09.2019 14:00:00 27,8 21,7 11 6 - - NNE 1023,6 16 -
14.09.2019 13:00:00 27,2 21,7 9 5 - - NNE 1024,2 16 -
14.09.2019 12:00:00 24,4 21,1 5 3 - - E 1025,0 16 -
14.09.2019 11:00:00 23,9 21,7 5 3 - - SE 1025,3 11 -
14.09.2019 10:00:00 22,8 21,1 13 7 - - E 1025,2 8 -
14.09.2019 09:00:00 22,8 21,1 9 5 - - E 1024,8 4,0 0,5
14.09.2019 08:00:00 22,8 21,7 9 5 - - - 1024,2 2,4 0,3
14.09.2019 07:00:00 22,8 21,7 0 0 - - N 1023,9 8 -
14.09.2019 06:00:00 22,8 21,7 5 3 - - NNE 1023,4 6 -
14.09.2019 05:00:00 22,8 21,7 5 3 - - NE 1022,9 10 0,0
14.09.2019 04:00:00 22,8 21,7 5 3 - - N 1022,9 8 0,3
14.09.2019 03:00:00 23,3 21,1 5 3 - - NNE 1023,3 13 -
14.09.2019 02:00:00 22,8 21,1 8 4 - - NE 1023,7 13 -
14.09.2019 01:00:00 22,8 21,1 8 4 - - NE 1024,0 13 -
14.09.2019 00:00:00 22,8 21,1 5 3 - - NNE 1024,4 11 -
13.09.2019 23:00:00 22,8 21,1 0 0 - - N 1024,4 15 -
13.09.2019 22:00:00 22,8 21,1 8 4 - - NNE 1024,1 15 0,0
13.09.2019 21:00:00 22,8 21,1 8 4 - - NE 1024,2 15 0,3
13.09.2019 20:00:00 23,3 21,1 9 5 - - NE 1023,8 15 0,0
13.09.2019 19:00:00 22,8 21,1 13 7 - - NNE 1021,9 4,8 3,0
13.09.2019 18:00:00 24,4 20,0 26 14 63 34 E 1020,7 16 -
13.09.2019 17:00:00 33,9 18,9 8 4 - - E 1019,4 16 0,0
13.09.2019 16:00:00 34,4 19,4 5 3 - - - 1019,4 16 -
13.09.2019 15:00:00 34,4 20,0 5 3 - - NNE 1020,3 16 -
13.09.2019 14:00:00 32,2 20,6 13 7 - - E 1021,4 16 0,0

tt = temperature
td = dewpoint
ff = wind speed
fx = gusts
dd = wind direction
ppp = reduced air pressure
vv = visibility
rr = precipitation

Next stations